Location: Newark
(32.9167°N, 112.9667°W)
Time: 14:00:34
(UTC+00:00)

N. Korean satellite - Pass Details

Date: 31 October 2019
Orbit: 456 x 506 km, 97.2° (Epoch: 18 November)

Event Time Altitude Azimuth Distance (km) Brightness Sun altitude
Rises 12:43:28 0° 25° (NNE) 2,599 10.5 -14.2°
Reaches altitude 10° 12:45:48 10° 39° (NE) 1,716 9.8 -13.8°
Maximum altitude 12:48:56 26° 97° (E) 1,028 9.2 -13.1°
Drops below altitude 10° 12:52:04 10° 155° (SSE) 1,712 9.8 -12.5°
Sets 12:54:23 0° 168° (SSE) 2,591 10.6 -12.0°
